{"data":{"norad_id":68595,"epoch":"2026-09-19T06:24:02.257056Z","epoch_age_seconds":172967,"freshness":"STALE","line1":"1 68595U 26072Y   26262.26669279  .00001345  00000+0  20534-3 0  9994","line2":"2 68595  51.9012 102.1460 0000359 136.7833 223.3158 14.79937871 25574","mean_motion":14.79937871,"eccentricity":3.59e-5,"inclination_deg":51.9012,"raan_deg":102.146,"arg_perigee_deg":136.7833,"mean_anomaly_deg":223.3158,"bstar":0.00020534,"rev_number":2557,"period_min":97.301381917268,"perigee_km":629.26867778183,"apogee_km":629.77182757258,"semimajor_km":7007.6572526772,"source":"CELESTRAK","updated_at":"2026-09-20T09:00:24.353826Z"}}